User: anonymous   Login
Location: Newark
(5.8900°S, 42.6378°W)
Time: 08:54:39
(UTC+00:00)
Language:

PicSat - Orbit

View from above orbital plane
View from above orbital plane
View from above satellite
View from above satellite

Ground track
Ground track

The orbit data is extracted from the following two-line orbital elements,

1 43131U 18004W   19292.76718254 +.00001470 +00000-0 +62831-4 0  9994
2 43131 097.4777 000.6307 0009585 171.7242 188.4155 15.24438538098262
Epoch (UTC): 19 October 2019 18:24:44
Eccentricity: 0.0009585
inclination: 97.4777°
perigee height: 486 km
apogee height: 499 km
right ascension of ascending node: 0.6307°
argument of perigee: 171.7242°
revolutions per day: 15.24438538
mean anomaly at epoch: 188.4155°
orbit number at epoch: 9826

The dashed part of the orbit path shows where the satellite is in the earth's shadow,  

DLR